Location: ??????
(42.0089°N, 44.3281°E)
Time: 18:50:01
(UTC+00:00)

USA 267 - Pass Details

Date: 29 May 2022
Orbit: 1101 x 1106 km, 123.0° (Epoch: 28 June)

Event Time Altitude Azimuth Distance (km) Brightness Sun altitude
Exits shadow 20:13:31 - 97° (E) 3,779 5.9 -25.4°
Reaches altitude 10° 20:15:47 10° 91° (E) 2,957 5.4 -25.5°
Maximum altitude 20:21:43 39° 25° (NNE) 1,599 4.5 -25.7°
Drops below altitude 10° 20:27:40 10° 320° (NW) 2,965 6.3 -25.8°
Sets 20:30:18 0° 313° (NW) 3,925 6.9 -25.9°
